📊 Raw Sensor Data

Showing records 40501 to 40525 of 84,965 total

ID Distance (ft) Battery V Battery A Int Temp (°F) Int Humid (%) Ext Temp (°F) Solar V RSSI SNR Time Stamp
44477 15.6 3.99 15 56 41 57 4.50 -68 7 06/25/2025 07:15 AM
44476 15.6 3.99 0 55 42 56 4.50 -67 8 06/25/2025 07:00 AM
44475 15.6 4.00 0 54 42 55 4.50 -67 8 06/25/2025 06:45 AM
44474 15.6 3.97 10 53 42 54 4.50 -67 8 06/25/2025 06:30 AM
44473 15.5 3.85 0 53 43 54 4.50 -68 8 06/25/2025 06:15 AM
44472 15.5 3.92 -7 53 43 54 4.50 -69 7 06/25/2025 06:00 AM
44471 15.5 3.83 -10 53 43 54 3.30 -68 8 06/25/2025 05:45 AM
44470 15.6 3.85 -5 53 43 54 1.60 -69 8 06/25/2025 05:30 AM
44469 15.5 3.93 -5 52 43 53 0.10 -68 8 06/25/2025 05:15 AM
44468 15.5 3.85 -5 53 43 53 0.00 -68 7 06/25/2025 05:00 AM
44467 15.5 3.84 -5 53 43 53 0.00 -69 8 06/25/2025 04:45 AM
44466 15.5 3.84 -5 53 43 54 0.00 -69 8 06/25/2025 04:30 AM
44465 15.6 3.85 -5 53 43 54 0.00 -69 8 06/25/2025 04:15 AM
44464 15.6 3.85 -5 52 43 54 0.00 -69 8 06/25/2025 04:00 AM
44463 15.6 3.93 -5 52 43 54 0.10 -67 9 06/25/2025 03:45 AM
44462 15.6 3.86 -5 52 43 53 0.10 -69 8 06/25/2025 03:30 AM
44461 15.6 3.85 -5 51 43 53 0.00 -69 8 06/25/2025 03:15 AM
44460 15.6 3.93 -5 51 43 53 0.00 -67 8 06/25/2025 03:00 AM
44459 15.6 3.86 -5 51 43 52 0.00 -68 8 06/25/2025 02:45 AM
44458 15.6 3.93 -5 51 43 53 0.00 -68 8 06/25/2025 02:30 AM
44457 15.6 3.84 -5 52 43 53 0.00 -67 8 06/25/2025 02:15 AM
44456 15.6 3.85 -5 52 43 53 0.00 -68 8 06/25/2025 02:00 AM
44455 15.6 3.85 -5 52 44 53 0.10 -67 7 06/25/2025 01:30 AM
44454 15.6 3.85 -5 52 44 54 0.10 -67 8 06/25/2025 01:15 AM
44453 15.6 3.94 -5 53 44 54 0.00 -67 8 06/25/2025 01:00 AM